Starlink 3681

operational
NORAD ID: 51968 Int'l Des: 2022-025 Owner: SPXS Country: US Constellation: starlink
LEOCIRCULARSTARLINK_TYPE

Über Starlink 3681

Beschreibung wird geladen...

Live-Position

3D-Globus wird geladen...

Nächste Überflüge

Höhenverlauf

Altitude vs Time

uPlot chart will show altitude changes over time

Zweizeiliger Elementsatz

1 51968U 22025N 25350.52807762 .00001270 00000-0 10415-3 0 9996
2 51968 53.0558 40.2548 0001319 87.5575 272.5565 15.06400015208443
Epoch: 16. Dez. 2025 • Age: 20 hours

Aktueller Status

Höhe 547.8 km
Geschwindigkeit 7.59 km/s
Subsatellitenpunkt 25.68°N, 17.23°W
Startdatum 9. März 2022
Alter 3.7 years
Typ internet

Technische Details

Klassifizierung Payload
Masse 297.00 kg
Trockenmasse 275.00 kg
Gesamtmasse 297.00 kg
Länge 0.20 m
Durchmesser 2.80 m
Spannweite 9.00 m
Form Box + pan
Hersteller SPXS
Bus-Typ Starlink
Phasenstatus In Orbit
Besitzer/Staat SPXS/US

Große Konstellationen

Loading constellations...